Regional Weather Roundup
Issued by NWS Glasgow, MT

Home | Current Version | Previous Version | Text Only | Print | Product List | Glossary On
Versions: 1 2 3 4 5 6 7 8 9 10 11 12 13 14 15 16 17 18 19 20 21 22 23 24 25 26 27 28 29 30 31 32 33 34 35 36 37 38 39 40 41 42 43 44 45 46 47 48 49 50
000
ASUS45 KGGW 031815
RWRGGW
HOURLY REGIONAL WEATHER ROUNDUP FOR NORTHEAST MONTANA
NATIONAL WEATHER SERVICE GLASGOW MONTANA
1200 PM MDT MON AUG 03 2015

NOTE: "FAIR" INDICATES FEW OR NO CLOUDS BELOW 12,000 FEET WITH NO
SIGNIFICANT WEATHER AND/OR OBSTRUCTIONS TO VISISBILITY.

NORTHEAST MONTANA


CITY           SKY/WX    TMP DP  RH WIND       PRES   REMARKS
GLASGOW        SUNNY     80  47  31 SE12      29.99F
6HR MIN TEMP:  56; 6HR MAX TEMP:  80;

PLENTYWOOD       N/A     77  46  33 NE3         N/A
WOLF POINT     SUNNY     82  49  31 S6        30.00F
JORDAN           N/A     85  46  25 SE10      29.96F
WINNETT          N/A     84  45  25 SE3G12      N/A
SIDNEY         SUNNY    N/A N/A N/A SE6       30.01F
GLENDIVE         N/A    N/A N/A N/A MISG        N/A
MALTA            N/A     82  50  32 SE7G17      N/A
SCOBEY           N/A     77  48  35 CALM      30.02F

FORT PECK REPORTS


CITY           SKY/WX    TMP DP  RH WIND       PRES   REMARKS
FORT PECK        N/A     82  50  32 E12         N/A
THE PINES        N/A     81  46  29 NE3         N/A

SOUTHEAST MONTANA


CITY           SKY/WX    TMP DP  RH WIND       PRES   REMARKS
BILLINGS       PTSUNNY   78  49  35 VRB6      29.99F
MILES CITY     SUNNY     85  50  29 SE13      29.97F
BAKER          SUNNY     83  49  30 VRB7      30.03F
LIVINGSTON     PTSUNNY   79  44  28 E15       30.01F

CENTRAL MONTANA


CITY           SKY/WX    TMP DP  RH WIND       PRES   REMARKS
HAVRE          SUNNY     87  51  28 E14G21    29.88F
LEWISTOWN      SUNNY     83  53  35 E14       29.98F
GREAT FALLS    MOSUNNY   85  46  25 NE9       29.91F
CUT BANK       SUNNY     76  49  38 S12       29.93F
HELENA         MOSUNNY   81  46  29 N3        29.92F
BUTTE          PTSUNNY   81  40  23 CALM      30.02F
BOZEMAN        PTSUNNY   77  47  34 E3        29.98F

WESTERN MONTANA


CITY           SKY/WX    TMP DP  RH WIND       PRES   REMARKS
MISSOULA       MOSUNNY   75  36  24 S7        29.89F
KALISPELL      NOT AVBL

NORTH DAKOTA


CITY           SKY/WX    TMP DP  RH WIND       PRES   REMARKS
WILLISTON      SUNNY     77  47  34 VRB6      30.03F
DICKINSON      SUNNY     76  48  37 E5        30.02F
MINOT          SUNNY     76  45  33 W9        30.01S
BISMARCK       SUNNY     77  50  38 W9        30.02F

SOUTHERN SASKATCHEWAN


CITY           SKY/WX    TMP DP  RH WIND       PRES   REMARKS
REGINA         PTSUNNY   79  52  38 W3        30.02F
ESTEVAN        PTSUNNY   77  50  38 N7        30.02F
SWIFT CURRENT  SUNNY     77  52  41 S13G21    30.00F



USA.gov is the U.S. government's official web portal to all federal, state and local government web resources and services.